Regional Weather Roundup
Issued by NWS Jackson, KY

Home | Current Version | Previous Version | Text Only | Print | Product List | Glossary On
Versions: 1 2 3 4 5 6 7 8 9 10 11 12 13 14 15 16 17 18 19 20 21 22 23 24 25 26 27 28 29 30 31 32 33 34 35 36 37 38 39 40 41 42 43 44 45 46 47 48 49 50
887
ASUS43 KJKL 240010
RWRJKL

EAST KENTUCKY HOURLY WEATHER ROUNDUP
NATIONAL WEATHER SERVICE JACKSON KY
800 PM EDT WED MAY 23 2018

NOTE: "FAIR" INDICATES FEW OR NO CLOUDS BELOW 12,000 FEET WITH
NO SIGNIFICANT WEATHER AND/OR OBSTRUCTIONS TO VISIBILITY.

* THESE REPORTS ARE NOT UNDER NWS QUALITY CONTROL AND MAY NOT
  REPORT WEATHER SUCH AS PRECIPITATION AND FOG.

KYZ079-080-083-085-087-088-110-112-115-119-120-240100
...EASTERN KENTUCKY...

CITY           SKY/WX    TMP DP  RH WIND       PRES   REMARKS
JACKSON          N/A     75  64  68 CALM      30.11R
6HR MIN TEMP:  75; 6HR MAX TEMP:  83;

LONDON           N/A     79  63  57 NE7       30.09S
6HR MIN TEMP:  79; 6HR MAX TEMP:  84;

SOMERSET*        N/A     77  63  61 MISG      30.09S
MONTICELLO*      N/A     79  66  64 N13       30.10R
6HR MIN TEMP:  79; 6HR MAX TEMP:  84;

WILLIAMSBURG*    N/A     77  64  65 N3        30.09R
MIDDLESBORO*     N/A     79  62  56 CALM      30.09R
6HR MIN TEMP:  79; 6HR MAX TEMP:  85;

HARLAN APT*      N/A     77  62  58 NE3       30.10S
PIKE CO APT*     N/A     73  61  66 N5        30.12S
BIG SANDY APT*   N/A     74  63  69 NE5       30.12R
6HR MIN TEMP:  74; 6HR MAX TEMP:  82;

MOREHEAD APT*    N/A     75  61  60 E7        30.13R
ASHLAND*         N/A     72  61  68 CALM      30.12R
$$

KYZ035-036-041-042-044-050-067-078-099-240100
...CENTRAL KENTUCKY...

CITY           SKY/WX    TMP DP  RH WIND       PRES   REMARKS
MT STERLING*     N/A     75  59  57 NE7       30.13S
FLEMING/MASON*   N/A     75  58  55 CALM      30.13S
DANVILLE*        N/A     75  63  64 NE6       30.11R
LEXINGTON        N/A     76  59  55 NE8       30.11S
6HR MIN TEMP:  76; 6HR MAX TEMP:  83;

FRANKFORT        N/A     79  58  48 NE8       30.10R
6HR MIN TEMP:  79; 6HR MAX TEMP:  84;

LOUISVILLE     MOCLDY    82  57  42 VRB7      30.08S
6HR MIN TEMP:  82; 6HR MAX TEMP:  86;

LEBANON*         N/A     77  63  61 N3        30.09S
GLASGOW*         N/A     81  62  52 NE3       30.08R
BOWLING GREEN    N/A     83  64  52 CALM      30.06F
6HR MIN TEMP:  82; 6HR MAX TEMP:  87;

$$

KYZ091>093-OHZ055-061-077-WVZ005-015-034-035-042-240100
...SOUTHERN OHIO/WEST VIRGINIA...

CITY           SKY/WX    TMP DP  RH WIND       PRES   REMARKS
COVINGTON        N/A     77  55  46 E9        30.12R
COLUMBUS         N/A     74  52  46 NE7       30.14S
DAYTON           N/A     73  55  53 NE8       30.15S
WILMINGTON       N/A     71  58  63 NE7       30.13S
HUNTINGTON       N/A     74  57  55 NE8       30.11S
CHARLESTON       N/A     73  59  61 VRB3      30.12S
PINEVILLE*       N/A     69  63  80 MISG      30.18R
BECKLEY          N/A     70  57  63 N9        30.16R
BLUEFIELD        N/A     70  58  65 N3        30.18R
LOGAN CO APT*    N/A     72  61  68 CALM      30.13S
$$

VAZ002-007-008-TNZ017-027-036-066-071-240100
...SOUTHWEST VIRGINIA/EAST TENNESSEE...

CITY           SKY/WX    TMP DP  RH WIND       PRES   REMARKS
WISE*          MOCLDY    72  63  73 N8        30.18R
JONESVILLE*      N/A     79  63  57 N3        30.11R
ABINGDON*        N/A     79  59  51 CALM      30.12R
BRISTOL        MOCLDY    78  69  73 CALM      30.08S
MORRISTOWN*    CLEAR     81  63  54 NE5       30.07R
SEVIERVILLE*   CLEAR     81  66  61 CALM      30.05R
KNOXVILLE      MOCLDY    80  67  64 NE6       30.04R
LAFOLLETTE*    CLEAR     79  63  57 VRB3      30.11R
OAK RIDGE        N/A     82  68  62 CALM      30.06R
CROSSVILLE       N/A     77  62  59 N6        30.12R
NASHVILLE      MOCLDY    83  62  49 N10       30.05F
$$

...KEY TO REMARKS...
VSB - VISIBILITY IN MILES
WCI - WIND CHILL INDEX
HX  - HEAT INDEX

$$




USA.gov is the U.S. government's official web portal to all federal, state and local government web resources and services.